Total_Precipitation_Accumulation
0.11 0.11 0.11 0.12 0.12 0.13 0.14 0.16 0.17 0.16 0.16 0.16 0.17 0.18 0.21 0.23 0.21 0.17 0.14 0.12 0.08 0.08 0.14 0.27 0.47 0.64 0.75 0.77 0.72 0.54 0.38 0.21 0.07 0.02 0.01 0.01 0.01 0.01 0.01 0.01 0.02 0.03 0.04
0.03 0.03 0.03 0.02 0.02 0.02 0.02 0.03 0.04 0.05 0.06 0.08 0.09 0.11 0.13 0.16 0.18 0.19 0.19 0.21 0.16 0.12 0.13 0.19 0.30 0.45 0.63 0.74 0.77 0.71 0.54 0.38 0.19 0.06 0.02 0.01 0.00 0.00 0.00 0.01 0.01 0.02 0.02
0.01 0.01 0.01 0.01 0.00 0.00 0.00 0.00 0.00 0.01 0.01 0.02 0.03 0.05 0.07 0.08 0.12 0.15 0.18 0.22 0.23 0.19 0.17 0.20 0.25 0.36 0.52 0.66 0.71 0.81 0.71 0.52 0.37 0.19 0.06 0.02 0.00 0.00 0.00 0.00 0.01 0.01 0.02
0.00 0.00 0.00 0.00 0.00 0.00 0.01 0.01 0.01 0.00 0.01 0.01 0.02 0.03 0.05 0.06 0.06 0.09 0.14 0.16 0.19 0.21 0.19 0.20 0.27 0.38 0.48 0.60 0.68 0.82 0.88 0.69 0.54 0.41 0.19 0.07 0.02 0.01 0.00 0.00 0.01 0.01 0.02
0.00 0.00 0.00 0.00 0.00 0.01 0.01 0.02 0.02 0.01 0.01 0.01 0.02 0.02 0.02 0.04 0.05 0.08 0.11 0.14 0.17 0.18 0.20 0.20 0.23 0.31 0.42 0.57 0.75 0.88 1.07 1.05 0.83 0.64 0.39 0.19 0.08 0.03 0.01 0.01 0.01 0.01 0.01
0.00 0.00 0.00 0.00 0.00 0.00 0.00 0.01 0.01 0.01 0.02 0.01 0.02 0.01 0.00 0.01 0.02 0.05 0.07 0.12 0.16 0.17 0.18 0.23 0.25 0.21 0.23 0.32 0.48 0.69 0.83 0.99 1.01 0.85 0.63 0.38 0.18 0.07 0.03 0.01 0.01 0.01 0.02
0.00 0.00 0.00 0.00 0.00 0.01 0.01 0.01 0.02 0.02 0.02 0.01 0.01 0.00 0.00 0.00 0.01 0.02 0.06 0.11 0.15 0.20 0.26 0.31 0.36 0.32 0.23 0.22 0.23 0.30 0.46 0.65 0.80 0.92 0.82 0.62 0.35 0.17 0.08 0.03 0.01 0.01 0.01
0.00 0.00 0.00 0.00 0.00 0.00 0.00 0.01 0.02 0.04 0.03 0.02 0.03 0.04 0.01 0.00 0.00 0.01 0.04 0.08 0.15 0.25 0.36 0.41 0.44 0.44 0.37 0.27 0.17 0.16 0.23 0.39 0.54 0.70 0.81 0.72 0.57 0.35 0.17 0.09 0.04 0.01 0.01
0.00 0.00 0.00 0.00 0.00 0.01 0.01 0.01 0.01 0.03 0.04 0.03 0.04 0.10 0.09 0.03 0.01 0.00 0.01 0.04 0.07 0.11 0.18 0.27 0.33 0.36 0.40 0.38 0.29 0.20 0.18 0.25 0.41 0.52 0.61 0.67 0.62 0.51 0.34 0.18 0.08 0.03 0.01
0.00 0.00 0.00 0.00 0.00 0.01 0.01 0.02 0.02 0.04 0.07 0.07 0.05 0.06 0.08 0.07 0.06 0.03 0.01 0.02 0.02 0.03 0.05 0.09 0.15 0.21 0.30 0.35 0.35 0.29 0.23 0.21 0.33 0.45 0.50 0.51 0.54 0.52 0.42 0.28 0.16 0.08 0.03
0.00 0.00 0.00 0.00 0.00 0.01 0.01 0.02 0.03 0.05 0.08 0.10 0.10 0.08 0.08 0.06 0.06 0.07 0.03 0.02 0.03 0.03 0.03 0.04 0.06 0.09 0.13 0.20 0.26 0.28 0.27 0.23 0.30 0.42 0.50 0.52 0.47 0.49 0.50 0.34 0.19 0.12 0.06
0.00 0.00 0.00 0.00 0.01 0.01 0.02 0.03 0.05 0.06 0.08 0.10 0.11 0.11 0.12 0.11 0.08 0.10 0.08 0.03 0.02 0.03 0.04 0.04 0.05 0.05 0.07 0.11 0.15 0.20 0.22 0.23 0.26 0.35 0.39 0.51 0.60 0.58 0.58 0.42 0.21 0.11 0.06
0.01 0.00 0.01 0.01 0.01 0.02 0.03 0.05 0.07 0.07 0.08 0.11 0.12 0.12 0.11 0.09 0.08 0.09 0.10 0.06 0.03 0.02 0.03 0.04 0.05 0.06 0.07 0.09 0.11 0.13 0.15 0.17 0.23 0.31 0.31 0.31 0.42 0.61 0.73 0.63 0.37 0.16 0.07
0.01 0.01 0.01 0.01 0.01 0.03 0.05 0.07 0.08 0.09 0.10 0.11 0.11 0.11 0.10 0.08 0.08 0.09 0.10 0.11 0.08 0.04 0.03 0.03 0.04 0.06 0.08 0.09 0.11 0.12 0.11 0.12 0.15 0.22 0.27 0.28 0.29 0.37 0.53 0.74 0.78 0.55 0.30
0.01 0.01 0.01 0.02 0.03 0.05 0.06 0.08 0.09 0.10 0.12 0.13 0.13 0.12 0.12 0.12 0.12 0.11 0.11 0.12 0.13 0.09 0.04 0.03 0.04 0.06 0.08 0.11 0.14 0.13 0.11 0.10 0.11 0.13 0.18 0.24 0.28 0.31 0.37 0.47 0.61 0.75 0.69
0.01 0.01 0.02 0.05 0.07 0.10 0.12 0.12 0.12 0.11 0.13 0.15 0.16 0.16 0.17 0.17 0.18 0.17 0.16 0.14 0.13 0.11 0.07 0.03 0.05 0.07 0.09 0.11 0.15 0.15 0.14 0.13 0.11 0.11 0.12 0.17 0.24 0.31 0.38 0.44 0.48 0.53 0.62
0.02 0.03 0.05 0.07 0.10 0.14 0.18 0.20 0.20 0.20 0.19 0.17 0.17 0.21 0.22 0.22 0.22 0.21 0.20 0.18 0.15 0.14 0.11 0.04 0.03 0.07 0.12 0.15 0.16 0.15 0.15 0.12 0.09 0.09 0.09 0.12 0.19 0.27 0.36 0.45 0.48 0.50 0.55
0.05 0.07 0.10 0.12 0.14 0.15 0.19 0.26 0.33 0.35 0.36 0.35 0.32 0.32 0.33 0.35 0.36 0.32 0.29 0.24 0.20 0.16 0.14 0.09 0.04 0.05 0.12 0.18 0.23 0.21 0.17 0.13 0.09 0.08 0.08 0.09 0.13 0.20 0.30 0.38 0.45 0.48 0.53
0.09 0.13 0.19 0.25 0.26 0.24 0.25 0.29 0.40 0.53 0.60 0.62 0.62 0.60 0.57 0.55 0.53 0.50 0.46 0.38 0.29 0.21 0.17 0.14 0.09 0.06 0.10 0.18 0.27 0.28 0.22 0.16 0.11 0.10 0.09 0.08 0.08 0.13 0.20 0.28 0.36 0.41 0.43
0.19 0.26 0.32 0.41 0.43 0.44 0.51 0.57 0.60 0.57 0.59 0.68 0.74 0.77 0.81 0.81 0.76 0.69 0.64 0.52 0.39 0.29 0.23 0.20 0.16 0.12 0.11 0.17 0.31 0.34 0.28 0.19 0.13 0.09 0.09 0.07 0.06 0.08 0.10 0.15 0.20 0.28 0.40
0.25 0.33 0.37 0.38 0.36 0.42 0.69 0.94 0.81 0.48 0.39 0.43 0.50 0.56 0.67 0.80 0.85 0.84 0.79 0.66 0.51 0.41 0.32 0.26 0.22 0.18 0.16 0.20 0.31 0.37 0.36 0.29 0.24 0.18 0.11 0.05 0.04 0.04 0.06 0.11 0.18 0.25 0.34
0.18 0.28 0.34 0.31 0.26 0.35 0.64 0.82 0.59 0.28 0.23 0.26 0.31 0.34 0.39 0.52 0.58 0.66 0.73 0.71 0.69 0.61 0.51 0.42 0.34 0.27 0.23 0.22 0.29 0.41 0.40 0.34 0.30 0.26 0.21 0.16 0.09 0.07 0.06 0.08 0.13 0.19 0.26
0.11 0.16 0.18 0.15 0.16 0.27 0.52 0.62 0.37 0.11 0.11 0.13 0.16 0.17 0.19 0.27 0.31 0.36 0.44 0.50 0.60 0.69 0.71 0.65 0.59 0.50 0.36 0.29 0.30 0.37 0.41 0.38 0.31 0.28 0.28 0.31 0.27 0.19 0.13 0.13 0.17 0.18 0.19
0.09 0.11 0.09 0.05 0.05 0.14 0.39 0.51 0.26 0.05 0.06 0.09 0.12 0.11 0.09 0.14 0.20 0.20 0.25 0.32 0.42 0.57 0.73 0.78 0.80 0.72 0.53 0.38 0.35 0.40 0.48 0.45 0.40 0.40 0.37 0.38 0.38 0.32 0.28 0.26 0.25 0.20 0.16
0.07 0.09 0.07 0.03 0.01 0.05 0.29 0.50 0.28 0.03 0.04 0.06 0.10 0.12 0.08 0.06 0.12 0.08 0.10 0.18 0.24 0.39 0.51 0.62 0.66 0.62 0.55 0.49 0.46 0.46 0.52 0.56 0.59 0.59 0.53 0.50 0.50 0.41 0.39 0.42 0.41 0.30 0.19
0.02 0.04 0.04 0.02 0.00 0.01 0.15 0.45 0.40 0.06 0.03 0.05 0.06 0.08 0.13 0.10 0.08 0.05 0.05 0.09 0.13 0.21 0.25 0.31 0.35 0.40 0.42 0.42 0.47 0.54 0.61 0.62 0.65 0.71 0.64 0.53 0.58 0.49 0.51 0.51 0.41 0.29 0.21